[[{"header":{"parameterUnit":"m.s-1","parameterCategory":1,"la1":30.2991,"la2":30.254,"lo1":-89.0895,"lo2":-89.0444,"dy":0.0017,"dx":0.0017,"nx":28,"ny":28,"refTime":"2024-02-11T03:00:00:Z","depth":0,"parameterNumber":2,"parameterNumberName":"U-component_of_WINDS"},"data":[0,0,0,0,0,0,0,0,0,0,0,0,0,0,0,0,0,0,0,0,0,0,0,0,0,0,0,0,0,0,0,0,0,0,0,0,0,0,0,0,0,0,0,0,0,0,0,0,0,0,0,0,0,0,0,0,0,0,-2.6546,-2.6545,0,-2.6526,-2.6526,-2.6526,-2.6465,-2.6464,-2.6463,-2.6461,-2.6443,-2.6444,-2.6445,0,0,0,0,0,0,0,0,0,0,0,0,0,-2.6533,-2.6534,-2.6546,-2.6545,-2.6545,-2.6526,-2.6526,-2.6526,-2.6466,-2.6464,-2.6462,-2.6461,-2.6443,-2.6444,-2.6445,0,0,0,0,0,0,0,0,0,0,0,0,0,-2.6529,-2.6534,-2.6546,-2.6513,-2.651,-2.6526,-2.6526,-2.6526,-2.6466,-2.6464,-2.6462,-2.646,-2.6443,-2.6444,-2.6445,-2.6492,0,0,-2.6448,-2.6449,0,0,0,0,0,0,0,0,-2.6529,-2.6529,-2.6518,-2.6515,-2.6512,-2.6496,-2.6515,-2.6514,-2.6466,-2.6483,-2.6461,-2.6459,-2.6463,-2.6462,-2.6463,-2.6491,-2.6491,-2.6449,-2.6449,-2.645,-2.645,0,0,0,0,0,0,0,-2.653,-2.653,-2.6538,-2.6518,-2.6514,-2.65,-2.6497,-2.6515,-2.6484,-2.6481,-2.6477,-2.6475,-2.646,-2.6462,-2.6462,-2.649,-2.6449,-2.645,-2.645,-2.6451,-2.6557,-2.6559,0,0,0,0,0,0,-2.6534,-2.653,-2.6539,-2.6537,-2.6516,-2.6502,-2.6499,-2.6503,-2.6484,-2.6479,-2.6477,-2.6472,-2.6461,-2.6461,-2.6461,-2.6514,-2.645,-2.6451,-2.6451,-2.6555,-2.6557,-2.656,0,0,0,0,0,0,-2.6534,-2.6536,-2.6539,-2.6533,-2.6532,-2.6504,-2.651,-2.6504,-2.6505,-2.6481,-2.6475,-2.6483,-2.6459,-2.6459,-2.6485,-2.6513,-2.6451,-2.6452,-2.6552,-2.6556,-2.6559,-2.6621,0,0,0,0,0,0,-2.6534,-2.6536,-2.6553,-2.6534,-2.6533,-2.6563,-2.6511,-2.6505,-2.6507,-2.6501,-2.6485,-2.6481,-2.6458,-2.6483,-2.6486,-2.6513,-2.6453,-2.655,-2.6554,-2.6558,-2.6617,-2.6626,-2.6635,0,0,0,0,0,-2.6534,-2.6572,-2.6554,-2.6555,-2.6553,-2.6564,-2.6564,-2.6536,-2.6509,-2.6526,-2.6511,-2.6481,-2.651,-2.6487,-2.6489,-2.6517,-2.6548,-2.6553,-2.6557,-2.6613,-2.6624,-2.6634,0,0,0,0,0,0,-2.6595,-2.6568,-2.6548,-2.6581,-2.6575,-2.6554,-2.6574,-2.6549,-2.6552,-2.6546,-2.6512,-2.6509,-2.6539,-2.6531,-2.6505,-2.6562,-2.6524,-2.653,-2.6565,-2.6576,-2.6585,-2.6585,-2.6454,0,0,0,0,0,-2.6612,-2.6623,-2.6599,-2.663,-2.6629,-2.6603,-2.6606,-2.6586,-2.6579,-2.6576,-2.6562,-2.6557,-2.6565,-2.6571,-2.6577,-2.6616,-2.6612,-2.6637,-2.6646,-2.6654,-2.6658,-2.6678,-2.6688,-2.6575,-2.6575,-2.6575,0,0,-2.6648,-2.6635,-2.6643,-2.6642,-2.6635,-2.6648,-2.6601,-2.6616,-2.6624,-2.6578,-2.66,-2.6591,-2.6583,-2.6616,-2.663,-2.661,-2.6689,-2.666,-2.6666,-2.6666,-2.6684,-2.6695,-2.6704,-2.6579,-2.6578,-2.6578,0,0,-2.6718,-2.671,-2.6734,-2.6728,-2.6719,-2.6701,-2.6708,-2.6691,-2.6682,-2.6704,-2.667,-2.6681,-2.6695,-2.6691,-2.6691,-2.6762,-2.6735,-2.6766,-2.6811,-2.6831,-2.684,-2.6848,-2.6872,-2.6881,-2.6771,-2.6771,-2.6771,0,-2.6763,-2.6779,-2.675,-2.6767,-2.6768,-2.6727,-2.6752,-2.6748,-2.6742,-2.6743,-2.6722,-2.6739,-2.6731,-2.6762,-2.6779,-2.6781,-2.6787,-2.6765,-2.6841,-2.6849,-2.6855,-2.6878,-2.6887,-2.6774,-2.6774,-2.6774,-2.6773,0,-2.6835,-2.6847,-2.6868,-2.6862,-2.6865,-2.6887,-2.6861,-2.6869,-2.6849,-2.6834,-2.6857,-2.6847,-2.685,-2.6856,-2.6837,-2.6885,-2.6873,-2.6847,-2.6808,-2.687,-2.6891,-2.6899,-2.678,-2.6778,-2.6777,-2.6776,0,0,-2.6939,-2.6918,-2.6926,-2.6923,-2.6911,-2.692,-2.694,-2.6942,-2.6949,-2.6947,-2.6962,-2.6977,-2.6953,-2.6953,-2.6933,-2.6951,-2.7007,-2.6923,-2.6922,-2.6937,-2.7058,-2.7075,-2.7085,-2.699,-2.6992,-2.6993,-2.7057,0,-2.7004,-2.7035,-2.7011,-2.7047,-2.7058,-2.7021,-2.7038,-2.7033,-2.7021,-2.7029,-2.7016,-2.7026,-2.6994,-2.6994,-2.701,-2.6996,-2.703,-2.6992,-2.7003,-2.7004,-2.7003,-2.7096,-2.7114,-2.7176,-2.7065,-2.7067,-2.7068,0,-2.7083,-2.7084,-2.7121,-2.7107,-2.711,-2.7126,-2.7127,-2.7135,-2.7129,-2.7119,-2.712,-2.7096,-2.7116,-2.708,-2.7106,-2.708,-2.7084,-2.7079,-2.7081,-2.7078,-2.7037,-2.7094,-2.7195,-2.7203,-2.7081,-2.708,-2.7079,0,-2.7153,-2.7164,-2.7187,-2.7186,-2.7171,-2.7183,-2.7177,-2.7169,-2.7173,-2.7174,-2.7176,-2.718,-2.7182,-2.7186,-2.7164,-2.714,-2.7193,-2.7155,-2.7184,-2.7185,-2.7194,-2.7194,-2.7295,-2.7202,-2.7202,-2.7202,-2.7201,0,-2.7227,-2.725,-2.7219,-2.7233,-2.7259,-2.7231,-2.7258,-2.7249,-2.7242,-2.7254,-2.7224,-2.7237,-2.7208,-2.7218,-2.7202,-2.7225,-2.7227,-2.7219,-2.7214,-2.722,-2.7221,-2.722,-2.7214,-2.7204,-2.7203,-2.7203,-2.7203,0,-2.7308,-2.7288,-2.7311,-2.7295,-2.7291,-2.7311,-2.7297,-2.731,-2.7297,-2.7313,-2.7315,-2.7294,-2.7304,-2.7284,-2.7291,-2.728,-2.7313,-2.7303,-2.7314,-2.731,-2.734,-2.7336,-2.7441,-2.7453,-2.7355,-2.7356,-2.7357,0,-2.7354,-2.7372,-2.7358,-2.7364,-2.7359,-2.7369,-2.7372,-2.7348,-2.7352,-2.7348,-2.7361,-2.7369,-2.7373,-2.7391,-2.7377,-2.7382,-2.737,-2.7407,-2.7371,-2.7376,-2.7368,-2.7366,-2.7367,-2.7413,-2.7414,-2.7415,-2.7416,0,-2.7439,-2.7428,-2.7434,-2.7437,-2.7441,-2.7442,-2.7441,-2.7448,-2.7422,-2.7429,-2.7438,-2.7442,-2.745,-2.7457,-2.746,-2.7455,-2.7431,-2.7428,-2.7435,-2.744,-2.7445,-2.744,-2.7332,-2.7425,-2.7424,-2.7424,-2.7423,-2.7423,-2.7502,-2.7516,-2.7508,-2.7516,-2.7512,-2.7513,-2.7523,-2.7512,-2.7519,-2.7523,-2.7509,-2.7521,-2.7517,-2.7517,-2.7515,-2.7525,-2.7509,-2.7519,-2.7521,-2.7523,-2.7527,-2.7446,-2.7526,-2.7526,-2.7526,-2.7525,-2.7525,0,-2.7583,-2.7577,-2.7584,-2.7583,-2.759,-2.7568,-2.7566,-2.7573,-2.7584,-2.7582,-2.7587,-2.7598,-2.7606,-2.7593,-2.7599,-2.7609,-2.7599,-2.7611,-2.7609,-2.7608,-2.7542,-2.7535,-2.762,-2.762,-2.762,-2.762,-2.762,-2.762,-2.7625,-2.7647,-2.7636,-2.7656,-2.765,-2.7661,-2.7662,-2.7662,-2.766,-2.7673,-2.768,-2.7672,-2.7665,-2.767,-2.7677,-2.7673,-2.7675,-2.7692,-2.7684,-2.7622,-2.7613,-2.7604,-2.7596,-2.7693,-2.7693,-2.7748,-2.7749,-2.7749]},{"header":{"parameterUnit":"m.s-1","parameterCategory":1,"la1":30.2991,"la2":30.254,"lo1":-89.0895,"lo2":-89.0444,"dy":0.0017,"dx":0.0017,"nx":28,"ny":28,"refTime":"2024-02-11T03:00:00:Z","depth":0,"parameterNumber":3,"parameterNumberName":"V-component_of_WINDS"},"data":[0,0,0,0,0,0,0,0,0,0,0,0,0,0,0,0,0,0,0,0,0,0,0,0,0,0,0,0,0,0,0,0,0,0,0,0,0,0,0,0,0,0,0,0,0,0,0,0,0,0,0,0,0,0,0,0,0,0,1.9476,1.9477,0,1.9534,1.9534,1.9535,1.9556,1.9555,1.9555,1.9555,1.9615,1.9616,1.9618,0,0,0,0,0,0,0,0,0,0,0,0,0,1.9386,1.9387,1.9476,1.9477,1.9477,1.9534,1.9534,1.9535,1.9556,1.9555,1.9555,1.9555,1.9614,1.9616,1.9618,0,0,0,0,0,0,0,0,0,0,0,0,0,1.9432,1.9388,1.9476,1.9494,1.9497,1.9533,1.9534,1.9535,1.9556,1.9555,1.9555,1.9555,1.9613,1.9616,1.9619,1.9641,0,0,1.9627,1.9628,0,0,0,0,0,0,0,0,1.943,1.9436,1.9491,1.9493,1.9496,1.9537,1.9524,1.9571,1.9556,1.9533,1.9555,1.9555,1.9589,1.9594,1.9605,1.9644,1.9646,1.9627,1.9629,1.963,1.963,0,0,0,0,0,0,0,1.9426,1.9433,1.9499,1.9492,1.9495,1.9501,1.9507,1.9533,1.9562,1.9535,1.9537,1.9543,1.959,1.9603,1.9607,1.9647,1.9627,1.9629,1.9631,1.9632,1.971,1.971,0,0,0,0,0,0,1.942,1.943,1.9497,1.9501,1.9461,1.9502,1.9509,1.9524,1.9562,1.9567,1.9544,1.9544,1.9598,1.9604,1.9609,1.964,1.963,1.9632,1.9634,1.9709,1.971,1.9711,0,0,0,0,0,0,1.9418,1.9426,1.9495,1.9466,1.9475,1.9504,1.9521,1.9525,1.9538,1.9568,1.9574,1.9551,1.9598,1.9605,1.9634,1.9642,1.9633,1.9636,1.9709,1.971,1.971,1.97,0,0,0,0,0,0,1.9415,1.9425,1.9433,1.9466,1.9477,1.9518,1.9521,1.9527,1.9542,1.9544,1.9576,1.9582,1.9598,1.9629,1.9636,1.9645,1.9638,1.9708,1.9709,1.971,1.97,1.97,1.9701,0,0,0,0,0,1.9412,1.9427,1.9433,1.9441,1.9488,1.9518,1.9524,1.9543,1.9543,1.9552,1.9572,1.9581,1.964,1.9632,1.964,1.965,1.9708,1.9709,1.971,1.97,1.97,1.9701,0,0,0,0,0,0,1.9394,1.9432,1.9439,1.9465,1.9488,1.9521,1.9533,1.9543,1.9566,1.9567,1.9589,1.9597,1.9624,1.964,1.963,1.9675,1.9674,1.9677,1.9664,1.9665,1.9665,1.9661,1.964,0,0,0,0,0,1.9393,1.9415,1.9447,1.9467,1.9478,1.9504,1.9518,1.9531,1.9555,1.9565,1.9587,1.9611,1.9635,1.9651,1.9674,1.9702,1.9711,1.9713,1.9713,1.9714,1.9716,1.9734,1.9736,1.9714,1.9714,1.9714,0,0,1.9392,1.9415,1.9427,1.9464,1.9483,1.9506,1.9512,1.9534,1.9552,1.9569,1.9597,1.9614,1.9643,1.9671,1.9685,1.9685,1.9724,1.9715,1.9715,1.9717,1.9735,1.9738,1.9739,1.9715,1.9715,1.9715,0,0,1.9401,1.942,1.944,1.946,1.9489,1.9506,1.9511,1.9543,1.9556,1.9584,1.9598,1.9619,1.966,1.968,1.9696,1.9715,1.9725,1.9722,1.9725,1.9742,1.9744,1.9746,1.9754,1.9757,1.9724,1.9724,1.9724,0,1.9396,1.9429,1.9449,1.9472,1.9489,1.9506,1.9527,1.9545,1.9581,1.9592,1.9592,1.9645,1.9665,1.97,1.9705,1.9716,1.9724,1.9719,1.9742,1.9744,1.9746,1.9754,1.9757,1.9724,1.9724,1.9724,1.9724,0,1.9422,1.9446,1.9458,1.9493,1.9511,1.9533,1.9557,1.9573,1.9585,1.9602,1.9633,1.9658,1.9688,1.9697,1.9708,1.9734,1.9734,1.9737,1.9737,1.9747,1.9756,1.9759,1.9723,1.9723,1.9723,1.9723,0,0,1.9421,1.9468,1.9472,1.9489,1.9524,1.9543,1.9566,1.9596,1.961,1.9634,1.9656,1.9691,1.9695,1.9713,1.9727,1.9742,1.9758,1.9744,1.9745,1.9747,1.979,1.9788,1.9791,1.9764,1.9765,1.9765,1.9788,0,1.9435,1.9478,1.9497,1.9532,1.9555,1.9572,1.9593,1.9617,1.9634,1.9657,1.9676,1.9701,1.9704,1.9716,1.9731,1.9752,1.9767,1.9751,1.9785,1.9786,1.9779,1.9796,1.9793,1.9814,1.9792,1.9792,1.9793,0,1.9458,1.9483,1.952,1.9554,1.9564,1.9582,1.9613,1.9634,1.9662,1.9674,1.9695,1.9709,1.9735,1.9733,1.9771,1.976,1.9775,1.9788,1.9789,1.9794,1.9791,1.9802,1.982,1.9824,1.9798,1.9797,1.9797,0,1.9455,1.9498,1.9526,1.954,1.958,1.9593,1.961,1.9638,1.9656,1.9682,1.9694,1.9723,1.974,1.9762,1.9784,1.978,1.9821,1.982,1.9833,1.9832,1.9841,1.9841,1.9863,1.9849,1.9848,1.9848,1.9848,0,1.947,1.9492,1.9526,1.9543,1.957,1.9592,1.9618,1.9636,1.9662,1.9684,1.97,1.9721,1.9748,1.9772,1.9789,1.982,1.9826,1.9838,1.9842,1.9837,1.9836,1.9848,1.9848,1.9849,1.9849,1.9849,1.9849,0,1.9471,1.9495,1.9527,1.9563,1.9572,1.959,1.9621,1.964,1.9658,1.9687,1.9695,1.9724,1.9754,1.9778,1.9817,1.9829,1.9861,1.9865,1.9851,1.9854,1.9867,1.9866,1.9899,1.9906,1.9885,1.9885,1.9885,0,1.9479,1.9497,1.9535,1.9552,1.9569,1.9595,1.9613,1.9637,1.9656,1.9691,1.9705,1.9736,1.9763,1.981,1.9835,1.9866,1.9872,1.9882,1.9877,1.9872,1.9874,1.9874,1.9877,1.9882,1.9883,1.9883,1.9883,0,1.9492,1.9504,1.9529,1.956,1.9582,1.9607,1.9633,1.9645,1.9674,1.9695,1.9726,1.9746,1.9787,1.9818,1.9852,1.987,1.9882,1.9884,1.9889,1.9885,1.9877,1.9883,1.9855,1.9883,1.9883,1.9883,1.9883,1.9883,1.9498,1.9516,1.9546,1.9575,1.9597,1.9622,1.9641,1.9663,1.969,1.9725,1.9738,1.977,1.9801,1.9847,1.9866,1.9893,1.9894,1.99,1.9902,1.9904,1.9904,1.9872,1.9898,1.9898,1.9898,1.9898,1.9899,0,1.9513,1.9534,1.9561,1.9597,1.962,1.9629,1.9659,1.9678,1.9707,1.9734,1.976,1.9797,1.9829,1.9857,1.989,1.9906,1.9913,1.9914,1.9914,1.9919,1.99,1.9894,1.9909,1.9909,1.9909,1.9909,1.9909,1.9909,1.9524,1.9555,1.957,1.9613,1.9634,1.9667,1.9683,1.9706,1.9728,1.9769,1.9796,1.9814,1.9843,1.9879,1.9908,1.9916,1.9928,1.9929,1.9938,1.9921,1.992,1.9918,1.9912,1.9931,1.9931,1.9955,1.9955,1.9955]}]]